[[{"header":{"parameterUnit":"m.s-1","parameterCategory":2,"la1":30.2991,"la2":30.254,"lo1":-89.0895,"lo2":-89.0444,"dy":0.0017,"dx":0.0017,"nx":28,"ny":28,"refTime":"2023-10-14T03:00:00:Z","depth":"0","parameterNumber":2,"parameterNumberName":"U-component_of_CURRENTS"},"data":[0,0,0,0,0,0,0,0,0,0,0,0,0,0,0,0,0,0,0,0,0,0,0,0,0,0,0,0,0,0,0,0,0,0,0,0,0,0,0,0,0,0,0,0,0,0,0,0,0,0,0,0,0,0,0,0,0,0,0.1785,0.1786,0,0.1829,0.1829,0.1829,0.1846,0.1846,0.1846,0.1846,0.1854,0.1854,0.1854,0,0,0,0,0,0,0,0,0,0,0,0,0,0.1708,0.1709,0.1785,0.1786,0.1787,0.1829,0.1829,0.1829,0.1846,0.1846,0.1846,0.1846,0.1854,0.1854,0.1854,0,0,0,0,0,0,0,0,0,0,0,0,0,0.1741,0.1709,0.1785,0.1803,0.1806,0.1829,0.1829,0.1829,0.1845,0.1846,0.1846,0.1847,0.1854,0.1854,0.1854,0.1845,0,0,0.1854,0.1854,0,0,0,0,0,0,0,0,0.1739,0.1744,0.18,0.1802,0.1805,0.1836,0.1805,0.1835,0.1845,0.1825,0.1846,0.1847,0.1847,0.1848,0.1849,0.1846,0.1846,0.1854,0.1854,0.1854,0.1854,0,0,0,0,0,0,0,0.1737,0.1742,0.1798,0.1801,0.1804,0.1808,0.1812,0.1811,0.1829,0.1827,0.183,0.1842,0.1848,0.1849,0.185,0.1846,0.1854,0.1854,0.1854,0.1854,0.1892,0.1893,0,0,0,0,0,0,0.1741,0.174,0.1796,0.1799,0.1778,0.1809,0.1814,0.1822,0.183,0.1834,0.1841,0.1843,0.1849,0.185,0.185,0.1888,0.1854,0.1854,0.1854,0.1891,0.1893,0.1894,0,0,0,0,0,0,0.1739,0.1745,0.1795,0.1774,0.1782,0.1811,0.1819,0.1823,0.1831,0.1842,0.1844,0.1847,0.185,0.185,0.1868,0.1887,0.1854,0.1853,0.189,0.1892,0.1893,0.1934,0,0,0,0,0,0,0.1736,0.1744,0.1748,0.1775,0.1783,0.1819,0.1819,0.1824,0.184,0.1842,0.1848,0.1849,0.185,0.1869,0.1868,0.1886,0.1853,0.1889,0.1891,0.1893,0.1931,0.1936,0.1941,0,0,0,0,0,0.1733,0.1744,0.1748,0.1755,0.1789,0.182,0.1824,0.1842,0.184,0.1849,0.186,0.1849,0.1881,0.187,0.1869,0.1887,0.1888,0.189,0.1893,0.1929,0.1935,0.1941,0,0,0,0,0,0,0.1699,0.1747,0.1753,0.1772,0.1798,0.1824,0.1835,0.1843,0.1857,0.1861,0.186,0.1862,0.1884,0.188,0.1867,0.1905,0.1883,0.1886,0.1911,0.1917,0.1922,0.1914,0.1853,0,0,0,0,0,0.1696,0.1722,0.1759,0.1771,0.1786,0.1807,0.182,0.1838,0.1857,0.1863,0.1865,0.1875,0.1892,0.1901,0.1908,0.1925,0.1937,0.1938,0.1943,0.1947,0.1941,0.1981,0.1989,0.1902,0.1902,0.1902,0,0,0.1682,0.1714,0.1725,0.1767,0.1784,0.1807,0.1815,0.1845,0.1863,0.1861,0.1875,0.1888,0.19,0.1926,0.1936,0.1927,0.1984,0.1951,0.1954,0.1946,0.1985,0.1993,0.2001,0.1903,0.1903,0.1903,0,0,0.1676,0.1698,0.1721,0.1745,0.179,0.1811,0.1821,0.1852,0.1866,0.1889,0.1897,0.1923,0.1933,0.1956,0.1967,0.2002,0.2006,0.2006,0.2028,0.2067,0.2075,0.2081,0.2129,0.2139,0.2012,0.2012,0.2012,0,0.1658,0.1691,0.1728,0.1754,0.1779,0.1812,0.1836,0.1854,0.1886,0.1904,0.1899,0.1943,0.1948,0.1996,0.2011,0.2012,0.2039,0.2004,0.2074,0.208,0.2086,0.2134,0.2145,0.2015,0.2014,0.2014,0.2014,0,0.1671,0.1695,0.1709,0.1757,0.1786,0.1816,0.1856,0.1879,0.1898,0.192,0.1965,0.1984,0.2013,0.2024,0.2026,0.2078,0.2086,0.2073,0.2057,0.2098,0.2145,0.2156,0.2018,0.2017,0.2016,0.2016,0,0,0.1648,0.1708,0.1716,0.1731,0.1797,0.1818,0.186,0.1911,0.1938,0.1969,0.2008,0.2041,0.2057,0.2071,0.2087,0.2118,0.2188,0.2115,0.2116,0.2161,0.229,0.2335,0.2351,0.2193,0.2194,0.2195,0.2315,0,0.165,0.1689,0.1733,0.1765,0.1784,0.1838,0.1871,0.1921,0.1962,0.2003,0.2046,0.2083,0.2076,0.2101,0.2134,0.2175,0.2215,0.2157,0.2245,0.2248,0.2281,0.2364,0.2351,0.2459,0.2325,0.2327,0.2328,0,0.1655,0.1685,0.1717,0.1769,0.1785,0.1813,0.1885,0.1921,0.1996,0.2031,0.2087,0.2119,0.2185,0.2161,0.226,0.2228,0.2258,0.2284,0.2289,0.2318,0.2312,0.2393,0.2484,0.2461,0.2344,0.2343,0.2342,0,0.1619,0.1674,0.1699,0.1716,0.1781,0.1811,0.1851,0.1927,0.1973,0.2052,0.2102,0.2173,0.2227,0.2273,0.2338,0.2304,0.2445,0.2405,0.2476,0.2479,0.2478,0.2479,0.2552,0.2464,0.2464,0.2464,0.2463,0,0.161,0.1626,0.1679,0.169,0.1725,0.1781,0.1833,0.1886,0.1978,0.2049,0.211,0.2194,0.2256,0.2348,0.2376,0.2486,0.2485,0.2501,0.2521,0.2495,0.2496,0.2482,0.2477,0.2468,0.2467,0.2466,0.2466,0,0.1568,0.1601,0.1624,0.1687,0.1705,0.1729,0.182,0.1868,0.1954,0.2056,0.2091,0.2231,0.2365,0.2438,0.2538,0.2556,0.2603,0.2662,0.2637,0.2652,0.2679,0.2677,0.2664,0.2572,0.276,0.2762,0.2764,0,0.1552,0.1558,0.1608,0.163,0.1661,0.1705,0.1751,0.1842,0.191,0.2091,0.2152,0.2314,0.2445,0.2631,0.2703,0.2798,0.2695,0.2813,0.2734,0.2707,0.2719,0.2585,0.2495,0.2756,0.2757,0.2759,0.276,0,0.1526,0.1541,0.1566,0.1609,0.165,0.1691,0.1767,0.1816,0.1949,0.2052,0.2227,0.2349,0.2573,0.2705,0.284,0.2874,0.2735,0.284,0.2816,0.2739,0.2593,0.2505,0.2653,0.277,0.2769,0.2768,0.2768,0.2767,0.1511,0.1519,0.1559,0.1598,0.1639,0.1689,0.1724,0.1827,0.1933,0.2104,0.2234,0.2417,0.2655,0.2867,0.2875,0.2926,0.2838,0.2886,0.2896,0.2765,0.2647,0.2832,0.2965,0.2965,0.2965,0.2965,0.2965,0,0.1498,0.1517,0.1555,0.16,0.1634,0.1665,0.175,0.1792,0.1909,0.2098,0.2247,0.2532,0.2716,0.2859,0.3041,0.3003,0.2798,0.2946,0.2746,0.2653,0.2849,0.2821,0.2924,0.2924,0.2924,0.2924,0.2924,0.2924,0.1497,0.1516,0.1537,0.1585,0.1618,0.1641,0.1679,0.1767,0.1893,0.2097,0.2286,0.2457,0.2847,0.3182,0.3226,0.312,0.2838,0.28,0.2701,0.2874,0.2866,0.2859,0.2829,0.2932,0.2933,0.238,0.2377,0.2375]},{"header":{"parameterUnit":"m.s-1","parameterCategory":2,"la1":30.2991,"la2":30.254,"lo1":-89.0895,"lo2":-89.0444,"dy":0.0017,"dx":0.0017,"nx":28,"ny":28,"refTime":"2023-10-14T03:00:00:Z","depth":"0","parameterNumber":3,"parameterNumberName":"V-component_of_CURRENTS"},"data":[0,0,0,0,0,0,0,0,0,0,0,0,0,0,0,0,0,0,0,0,0,0,0,0,0,0,0,0,0,0,0,0,0,0,0,0,0,0,0,0,0,0,0,0,0,0,0,0,0,0,0,0,0,0,0,0,0,0,-0.0458,-0.0458,0,-0.0465,-0.0465,-0.0465,-0.0481,-0.0481,-0.0482,-0.0482,-0.0611,-0.0614,-0.0617,0,0,0,0,0,0,0,0,0,0,0,0,0,-0.0397,-0.0398,-0.0458,-0.0458,-0.0459,-0.0465,-0.0465,-0.0465,-0.0481,-0.0481,-0.0482,-0.0482,-0.0611,-0.0614,-0.0618,0,0,0,0,0,0,0,0,0,0,0,0,0,-0.0413,-0.0398,-0.0458,-0.0469,-0.047,-0.0465,-0.0465,-0.0465,-0.048,-0.0481,-0.0482,-0.0483,-0.0609,-0.0614,-0.0618,-0.063,0,0,-0.0632,-0.0634,0,0,0,0,0,0,0,0,-0.0413,-0.0415,-0.0467,-0.0468,-0.0469,-0.0475,-0.0491,-0.0527,-0.048,-0.0474,-0.0482,-0.0483,-0.0578,-0.0585,-0.058,-0.0636,-0.0641,-0.0632,-0.0635,-0.0637,-0.0638,0,0,0,0,0,0,0,-0.0411,-0.0415,-0.0459,-0.0467,-0.0469,-0.0453,-0.0456,-0.0497,-0.0522,-0.0475,-0.0476,-0.0481,-0.0579,-0.0575,-0.0583,-0.0643,-0.0632,-0.0636,-0.0639,-0.064,-0.0763,-0.0763,0,0,0,0,0,0,-0.0418,-0.0414,-0.0458,-0.0459,-0.0445,-0.0454,-0.0457,-0.047,-0.0519,-0.0527,-0.048,-0.0481,-0.0567,-0.0578,-0.0588,-0.0623,-0.0637,-0.0641,-0.0643,-0.0762,-0.0763,-0.0763,0,0,0,0,0,0,-0.0416,-0.0422,-0.0458,-0.0438,-0.0442,-0.0455,-0.0469,-0.047,-0.0468,-0.0522,-0.0532,-0.0476,-0.0568,-0.0582,-0.0631,-0.0628,-0.0643,-0.0647,-0.0761,-0.0762,-0.0763,-0.0681,0,0,0,0,0,0,-0.0415,-0.0422,-0.0425,-0.0439,-0.0443,-0.0449,-0.0468,-0.047,-0.047,-0.0472,-0.0522,-0.0535,-0.057,-0.0624,-0.0635,-0.0634,-0.065,-0.0761,-0.0762,-0.0763,-0.0683,-0.0679,-0.0676,0,0,0,0,0,-0.0413,-0.0415,-0.0426,-0.0431,-0.0451,-0.0449,-0.0449,-0.0458,-0.0469,-0.046,-0.0506,-0.0533,-0.064,-0.0628,-0.0641,-0.0641,-0.076,-0.0761,-0.0763,-0.0685,-0.068,-0.0676,0,0,0,0,0,0,-0.0378,-0.0417,-0.043,-0.0441,-0.0443,-0.0452,-0.0446,-0.0454,-0.0477,-0.0488,-0.0538,-0.0554,-0.0595,-0.0635,-0.0621,-0.0683,-0.0705,-0.0709,-0.0642,-0.0638,-0.0634,-0.06,-0.0654,0,0,0,0,0,-0.0376,-0.0393,-0.0416,-0.0418,-0.0424,-0.0434,-0.0433,-0.0441,-0.0466,-0.0475,-0.0511,-0.0562,-0.0609,-0.0636,-0.0679,-0.0712,-0.0742,-0.0725,-0.0721,-0.0717,-0.07,-0.075,-0.0749,-0.0768,-0.0768,-0.0768,0,0,-0.0351,-0.0384,-0.0384,-0.0412,-0.0418,-0.0412,-0.0435,-0.0433,-0.043,-0.049,-0.0501,-0.0549,-0.0615,-0.0649,-0.0672,-0.0683,-0.0727,-0.0719,-0.0715,-0.07,-0.0751,-0.0749,-0.0747,-0.0769,-0.0769,-0.0768,0,0,-0.031,-0.0352,-0.0344,-0.0354,-0.0374,-0.0391,-0.039,-0.0403,-0.0413,-0.0434,-0.048,-0.0518,-0.0586,-0.0621,-0.0654,-0.0659,-0.0704,-0.0685,-0.0638,-0.0687,-0.0685,-0.0684,-0.0709,-0.071,-0.0685,-0.0684,-0.0684,0,-0.028,-0.0286,-0.0334,-0.0332,-0.0332,-0.038,-0.0356,-0.0377,-0.0401,-0.0409,-0.0433,-0.0514,-0.0567,-0.0607,-0.0609,-0.0646,-0.0679,-0.0644,-0.0679,-0.0678,-0.0678,-0.0705,-0.0707,-0.0681,-0.0681,-0.0681,-0.0682,0,-0.0226,-0.0234,-0.0232,-0.0256,-0.0261,-0.0254,-0.0293,-0.0305,-0.0335,-0.0354,-0.0392,-0.0457,-0.0502,-0.0531,-0.0573,-0.0601,-0.0625,-0.0663,-0.068,-0.0671,-0.07,-0.0704,-0.0675,-0.0677,-0.0678,-0.0679,0,0,-0.0161,-0.0187,-0.0188,-0.0179,-0.0224,-0.0217,-0.0234,-0.0252,-0.0255,-0.0299,-0.0297,-0.0375,-0.0407,-0.0446,-0.0503,-0.0545,-0.0572,-0.0599,-0.0603,-0.0604,-0.0668,-0.0665,-0.067,-0.0623,-0.0624,-0.0624,-0.0684,0,-0.0102,-0.0076,-0.0112,-0.0079,-0.0067,-0.0123,-0.0129,-0.0158,-0.02,-0.0219,-0.0291,-0.0322,-0.038,-0.0401,-0.0451,-0.0546,-0.0582,-0.0551,-0.0693,-0.0696,-0.068,-0.0674,-0.0684,-0.0736,-0.0688,-0.0689,-0.0689,0,-0.0041,-0.0038,0.0006,0.0003,0.0005,0.0011,-0.0013,-0.0024,-0.0085,-0.0114,-0.0161,-0.0226,-0.0288,-0.0343,-0.0476,-0.0459,-0.0548,-0.062,-0.0625,-0.065,-0.0702,-0.0743,-0.0746,-0.0919,-0.0696,-0.0696,-0.0695,0,0.0028,0.0043,0.0079,0.0079,0.0064,0.0074,0.0062,0.0014,0.0003,-0.0048,-0.0058,-0.015,-0.0192,-0.0315,-0.046,-0.0478,-0.0605,-0.0654,-0.0729,-0.0729,-0.0776,-0.078,-0.0945,-0.074,-0.074,-0.074,-0.0739,0,0.0088,0.0119,0.0116,0.0133,0.0174,0.0145,0.0164,0.0138,0.01,0.01,0.0005,-0.0009,-0.0191,-0.0292,-0.043,-0.0579,-0.0585,-0.0706,-0.0744,-0.0748,-0.0748,-0.0933,-0.1037,-0.0742,-0.0741,-0.0741,-0.0741,0,0.0152,0.0149,0.0188,0.0195,0.0205,0.023,0.0227,0.0235,0.0198,0.0196,0.0186,0.0084,-0.0041,-0.0216,-0.0413,-0.053,-0.0787,-0.0732,-0.0707,-0.074,-0.0966,-0.1064,-0.1274,-0.1362,-0.0823,-0.0824,-0.0824,0,0.0188,0.0215,0.0237,0.026,0.0264,0.0293,0.0311,0.0285,0.0294,0.026,0.0273,0.016,0.0095,-0.0173,-0.041,-0.0635,-0.0813,-0.0784,-0.0818,-0.0968,-0.1107,-0.1189,-0.1255,-0.0852,-0.0853,-0.0853,-0.0854,0,0.0247,0.0247,0.0269,0.0318,0.0348,0.0383,0.0413,0.0438,0.0414,0.0419,0.0412,0.0362,0.0113,-0.012,-0.0419,-0.0588,-0.0925,-0.0797,-0.098,-0.1155,-0.1232,-0.1337,-0.081,-0.0857,-0.0856,-0.0856,-0.0856,-0.0856,0.0277,0.0299,0.032,0.0371,0.0411,0.0468,0.0516,0.0547,0.058,0.0608,0.0541,0.0504,0.0151,-0.0262,-0.0502,-0.095,-0.097,-0.1094,-0.1201,-0.1271,-0.1358,-0.0813,-0.0885,-0.0885,-0.0885,-0.0885,-0.0885,0,0.0299,0.0326,0.0377,0.0427,0.049,0.0505,0.0579,0.0638,0.0707,0.0715,0.0708,0.0489,0.0073,-0.0358,-0.0953,-0.1281,-0.1426,-0.1486,-0.163,-0.1678,-0.1218,-0.1221,-0.1336,-0.1336,-0.1336,-0.1336,-0.1336,-0.1335,0.0302,0.0348,0.0376,0.048,0.0537,0.0643,0.0701,0.0789,0.0823,0.0838,0.0781,0.0685,0.0305,-0.0749,-0.1542,-0.1725,-0.1986,-0.2045,-0.2175,-0.1884,-0.1856,-0.183,-0.1857,-0.2104,-0.2105,-0.2595,-0.26,-0.2604]}],[{"header":{"parameterUnit":"m.s-1","parameterCategory":2,"la1":30.2991,"la2":30.254,"lo1":-89.0895,"lo2":-89.0444,"dy":0.0017,"dx":0.0017,"nx":28,"ny":28,"refTime":"2023-10-14T03:00:00:Z","depth":"2","parameterNumber":2,"parameterNumberName":"U-component_of_CURRENTS"},"data":[0,0,0,0,0,0,0,0,0,0,0,0,0,0,0,0,0,0,0,0,0,0,0,0,0,0,0,0,0,0,0,0,0,0,0,0,0,0,0,0,0,0,0,0,0,0,0,0,0,0,0,0,0,0,0,0,0,0,0.175,0.1751,0,0.1791,0.1791,0.1791,0.1806,0.1807,0.1807,0.1807,0.181,0.181,0.181,0,0,0,0,0,0,0,0,0,0,0,0,0,0.1676,0.1676,0.175,0.1751,0.1752,0.1791,0.1791,0.1791,0.1806,0.1807,0.1807,0.1807,0.1811,0.181,0.181,0,0,0,0,0,0,0,0,0,0,0,0,0,0.1707,0.1677,0.175,0.1768,0.177,0.1791,0.1791,0.1791,0.1806,0.1807,0.1807,0.1808,0.1811,0.181,0.181,0.18,0,0,0.1809,0.1809,0,0,0,0,0,0,0,0,0.1705,0.1709,0.1764,0.1767,0.1769,0.1798,0.1766,0.1794,0.1806,0.1788,0.1807,0.1808,0.1805,0.1806,0.1806,0.18,0.18,0.1809,0.1809,0.1809,0.1809,0,0,0,0,0,0,0,0.1703,0.1707,0.1762,0.1765,0.1768,0.177,0.1775,0.1771,0.1789,0.1789,0.1792,0.1803,0.1806,0.1807,0.1807,0.18,0.1809,0.1809,0.1809,0.1809,0.1844,0.1845,0,0,0,0,0,0,0.1707,0.1705,0.1761,0.1764,0.1743,0.1772,0.1777,0.1785,0.179,0.1793,0.1803,0.1804,0.1807,0.1807,0.1807,0.1845,0.1809,0.1809,0.1809,0.1843,0.1845,0.1846,0,0,0,0,0,0,0.1705,0.1712,0.1759,0.1739,0.1746,0.1773,0.1782,0.1785,0.1793,0.1802,0.1803,0.1809,0.1807,0.1807,0.1824,0.1843,0.1809,0.1808,0.1842,0.1844,0.1845,0.1889,0,0,0,0,0,0,0.1703,0.171,0.1715,0.1739,0.1747,0.1782,0.1782,0.1786,0.1802,0.1803,0.1807,0.1808,0.1808,0.1825,0.1824,0.1842,0.1808,0.184,0.1843,0.1845,0.1886,0.1891,0.1896,0,0,0,0,0,0.17,0.171,0.1714,0.1721,0.1753,0.1783,0.1787,0.1804,0.1802,0.1811,0.182,0.1808,0.1837,0.1825,0.1824,0.1843,0.1839,0.1842,0.1844,0.1883,0.189,0.1896,0,0,0,0,0,0,0.1666,0.1713,0.1719,0.1738,0.1763,0.1788,0.1798,0.1806,0.1818,0.1822,0.1819,0.182,0.1841,0.1836,0.1823,0.186,0.1837,0.184,0.1867,0.1874,0.1879,0.187,0.1808,0,0,0,0,0,0.1663,0.1689,0.1725,0.1737,0.1751,0.1771,0.1784,0.1802,0.1819,0.1825,0.1825,0.1833,0.1849,0.1857,0.1863,0.188,0.189,0.1892,0.1898,0.1902,0.1896,0.1936,0.1944,0.1854,0.1854,0.1854,0,0,0.1649,0.1681,0.1692,0.1733,0.1749,0.1772,0.1779,0.1808,0.1826,0.1822,0.1835,0.1846,0.1857,0.1882,0.1891,0.1882,0.1939,0.1906,0.1909,0.19,0.1939,0.1948,0.1956,0.1856,0.1855,0.1855,0,0,0.1643,0.1665,0.1688,0.1712,0.1756,0.1777,0.1787,0.1817,0.183,0.1852,0.1859,0.1883,0.1892,0.1913,0.1923,0.1958,0.1963,0.1963,0.1987,0.2027,0.2034,0.2041,0.2088,0.2099,0.197,0.197,0.197,0,0.1625,0.1658,0.1695,0.1721,0.1745,0.1778,0.1802,0.182,0.185,0.1868,0.1863,0.1904,0.1907,0.1954,0.1969,0.197,0.1997,0.1962,0.2034,0.204,0.2046,0.2093,0.2104,0.1973,0.1972,0.1972,0.1972,0,0.1638,0.1663,0.1677,0.1725,0.1753,0.1783,0.1823,0.1845,0.1864,0.1886,0.193,0.1947,0.1975,0.1985,0.1985,0.2038,0.2046,0.2033,0.2016,0.2058,0.2105,0.2116,0.1976,0.1975,0.1975,0.1974,0,0,0.1615,0.1675,0.1684,0.1699,0.1765,0.1786,0.1828,0.1878,0.1905,0.1935,0.1975,0.2006,0.2021,0.2033,0.2048,0.208,0.2151,0.2077,0.2078,0.2122,0.2255,0.2293,0.2308,0.2157,0.2158,0.216,0.2278,0,0.1618,0.1657,0.1701,0.1733,0.1753,0.1806,0.1839,0.1888,0.193,0.1971,0.2012,0.2049,0.204,0.2065,0.2098,0.2137,0.2178,0.212,0.2208,0.221,0.2237,0.2321,0.2066,0.2154,0.2289,0.2291,0.2292,0,0.1623,0.1653,0.1686,0.1738,0.1754,0.1782,0.1854,0.189,0.1965,0.1999,0.2055,0.2086,0.2151,0.2127,0.2225,0.2193,0.2223,0.2248,0.2253,0.2275,0.2268,0.2129,0.2168,0.231,0.2308,0.2307,0.2306,0,0.1588,0.1643,0.1668,0.1686,0.175,0.178,0.1821,0.1897,0.1942,0.2021,0.2071,0.2141,0.2195,0.2241,0.2304,0.227,0.241,0.237,0.2435,0.2438,0.223,0.2213,0.243,0.243,0.243,0.243,0.2429,0,0.1579,0.1595,0.1649,0.166,0.1696,0.1751,0.1804,0.1857,0.1949,0.2019,0.208,0.2163,0.2225,0.2316,0.2342,0.2448,0.245,0.246,0.2479,0.2243,0.2226,0.2353,0.2343,0.2434,0.2433,0.2432,0.2431,0,0.1537,0.1571,0.1594,0.1658,0.1676,0.1701,0.1792,0.184,0.1926,0.2028,0.2062,0.2202,0.2334,0.2405,0.2504,0.2517,0.2592,0.2618,0.2352,0.234,0.2579,0.2569,0.2704,0.2707,0.2709,0.2711,0.2712,0,0.1522,0.1528,0.1579,0.1602,0.1633,0.1678,0.1724,0.1815,0.1882,0.2062,0.2123,0.2284,0.2409,0.2589,0.2601,0.2678,0.2695,0.2508,0.2396,0.2606,0.2611,0.2598,0.2585,0.2135,0.2132,0.2129,0.2127,0,0.1496,0.1512,0.1537,0.1581,0.1623,0.1663,0.1739,0.1788,0.192,0.2017,0.2191,0.2307,0.2478,0.2454,0.2559,0.2567,0.2475,0.2462,0.2742,0.2128,0.2086,0.2085,0.2088,0.2102,0.2105,0.2107,0.2108,0.2109,0.1482,0.149,0.153,0.157,0.1611,0.166,0.1693,0.1772,0.1868,0.1975,0.2132,0.2206,0.2249,0.2295,0.2299,0.2298,0.2447,0.2316,0.2317,0.2322,0.2258,0.2224,0.2255,0.2258,0.226,0.2263,0.2265,0,0.1464,0.1488,0.1526,0.157,0.1596,0.1635,0.1718,0.1727,0.1803,0.1868,0.1957,0.1842,0.1861,0.1941,0.1886,0.1957,0.1869,0.1912,0.1713,0.174,0.1763,0.1662,0.1505,0.1503,0.1502,0.15,0,0,0.1461,0.1477,0.1497,0.1539,0.1577,0.1591,0.1627,0.1636,0.1662,0.1624,0.1601,0.1688,0.183,0.1578,0.1595,0.1534,0.1625,0.1507,0.2106,0.1892,0.1912,0.1987,0.1864,0,0,0,0,0]},{"header":{"parameterUnit":"m.s-1","parameterCategory":2,"la1":30.2991,"la2":30.254,"lo1":-89.0895,"lo2":-89.0444,"dy":0.0017,"dx":0.0017,"nx":28,"ny":28,"refTime":"2023-10-14T03:00:00:Z","depth":"2","parameterNumber":3,"parameterNumberName":"V-component_of_CURRENTS"},"data":[0,0,0,0,0,0,0,0,0,0,0,0,0,0,0,0,0,0,0,0,0,0,0,0,0,0,0,0,0,0,0,0,0,0,0,0,0,0,0,0,0,0,0,0,0,0,0,0,0,0,0,0,0,0,0,0,0,0,-0.0388,-0.0388,0,-0.039,-0.039,-0.039,-0.0407,-0.0407,-0.0408,-0.0408,-0.0532,-0.0535,-0.0538,0,0,0,0,0,0,0,0,0,0,0,0,0,-0.0335,-0.0336,-0.0388,-0.0388,-0.0388,-0.039,-0.039,-0.039,-0.0407,-0.0407,-0.0408,-0.0409,-0.0531,-0.0535,-0.0538,0,0,0,0,0,0,0,0,0,0,0,0,0,-0.0348,-0.0336,-0.0388,-0.0398,-0.0399,-0.039,-0.039,-0.039,-0.0406,-0.0407,-0.0408,-0.0409,-0.053,-0.0534,-0.0538,-0.0547,0,0,-0.0551,-0.0553,0,0,0,0,0,0,0,0,-0.0347,-0.035,-0.0397,-0.0397,-0.0399,-0.04,-0.0416,-0.0449,-0.0406,-0.0402,-0.0408,-0.0409,-0.05,-0.0506,-0.0501,-0.0553,-0.0558,-0.0551,-0.0554,-0.0556,-0.0557,0,0,0,0,0,0,0,-0.0346,-0.0349,-0.0387,-0.0397,-0.0398,-0.038,-0.0384,-0.0422,-0.0447,-0.0403,-0.0404,-0.0406,-0.0501,-0.0497,-0.0505,-0.056,-0.0551,-0.0555,-0.0558,-0.0559,-0.0679,-0.068,0,0,0,0,0,0,-0.0352,-0.0349,-0.0387,-0.0388,-0.0376,-0.0381,-0.0385,-0.0398,-0.0444,-0.0452,-0.0406,-0.0407,-0.0489,-0.05,-0.0509,-0.0545,-0.0556,-0.056,-0.0562,-0.0679,-0.068,-0.068,0,0,0,0,0,0,-0.0351,-0.0356,-0.0387,-0.0369,-0.0372,-0.0382,-0.0396,-0.0397,-0.0396,-0.0446,-0.0455,-0.0403,-0.049,-0.0503,-0.055,-0.055,-0.0562,-0.0565,-0.0678,-0.0679,-0.068,-0.0604,0,0,0,0,0,0,-0.035,-0.0356,-0.0359,-0.037,-0.0373,-0.0378,-0.0395,-0.0397,-0.0396,-0.0398,-0.0447,-0.0459,-0.0492,-0.0544,-0.0554,-0.0556,-0.0569,-0.0677,-0.0678,-0.068,-0.0605,-0.0602,-0.0599,0,0,0,0,0,-0.0348,-0.0349,-0.0359,-0.0364,-0.0381,-0.0378,-0.0377,-0.0386,-0.0395,-0.0388,-0.0431,-0.0457,-0.056,-0.0547,-0.056,-0.0562,-0.0676,-0.0678,-0.068,-0.0607,-0.0602,-0.0599,0,0,0,0,0,0,-0.0315,-0.0351,-0.0363,-0.0372,-0.0374,-0.0381,-0.0375,-0.0382,-0.0405,-0.0415,-0.0462,-0.0477,-0.0517,-0.0556,-0.054,-0.0604,-0.0624,-0.0628,-0.0565,-0.0561,-0.0558,-0.0524,-0.0572,0,0,0,0,0,-0.0313,-0.0329,-0.035,-0.0351,-0.0357,-0.0365,-0.0364,-0.0372,-0.0395,-0.0403,-0.0437,-0.0487,-0.0531,-0.0558,-0.06,-0.0633,-0.0661,-0.0647,-0.0643,-0.064,-0.0623,-0.0674,-0.0673,-0.0686,-0.0686,-0.0686,0,0,-0.0288,-0.0319,-0.0319,-0.0346,-0.035,-0.0345,-0.0366,-0.0365,-0.0362,-0.0418,-0.0429,-0.0475,-0.0538,-0.0572,-0.0595,-0.0606,-0.0652,-0.0642,-0.0639,-0.0623,-0.0676,-0.0674,-0.0673,-0.0687,-0.0686,-0.0686,0,0,-0.0247,-0.0288,-0.0281,-0.0291,-0.0309,-0.0325,-0.0325,-0.0337,-0.0348,-0.0367,-0.0411,-0.0449,-0.0514,-0.0549,-0.058,-0.0587,-0.0631,-0.0614,-0.057,-0.062,-0.0619,-0.0618,-0.0643,-0.0645,-0.0615,-0.0614,-0.0614,0,-0.0217,-0.0223,-0.0271,-0.0268,-0.0268,-0.0315,-0.0293,-0.0313,-0.0336,-0.0344,-0.0368,-0.0446,-0.0497,-0.0536,-0.054,-0.0575,-0.0609,-0.0573,-0.0613,-0.0613,-0.0613,-0.064,-0.0643,-0.0611,-0.0611,-0.0612,-0.0612,0,-0.0165,-0.0173,-0.017,-0.0195,-0.02,-0.0194,-0.0232,-0.0245,-0.0275,-0.0293,-0.0331,-0.0394,-0.0438,-0.0468,-0.0507,-0.0537,-0.056,-0.0598,-0.0612,-0.0606,-0.0636,-0.064,-0.0606,-0.0607,-0.0608,-0.0609,0,0,-0.0099,-0.0126,-0.0127,-0.0119,-0.0163,-0.0157,-0.0175,-0.0193,-0.0197,-0.0241,-0.024,-0.0317,-0.0349,-0.0386,-0.0442,-0.0485,-0.0515,-0.0538,-0.0542,-0.0543,-0.0613,-0.0607,-0.0612,-0.0567,-0.0567,-0.0568,-0.0628,0,-0.0042,-0.0017,-0.0052,-0.0021,-0.0009,-0.0065,-0.0072,-0.0102,-0.0144,-0.0164,-0.0236,-0.0266,-0.0323,-0.0344,-0.0395,-0.0488,-0.0526,-0.0494,-0.0635,-0.0639,-0.0618,-0.0617,-0.056,-0.0607,-0.0633,-0.0634,-0.0634,0,0.0019,0.0021,0.0064,0.006,0.0061,0.0067,0.0042,0.003,-0.0032,-0.0061,-0.0109,-0.0172,-0.0234,-0.029,-0.0423,-0.0405,-0.0495,-0.0567,-0.0572,-0.0592,-0.0641,-0.0622,-0.0615,-0.0642,-0.0642,-0.0641,-0.0641,0,0.0088,0.0101,0.0136,0.0136,0.012,0.0129,0.0117,0.0068,0.0057,0.0004,-0.0006,-0.0099,-0.0141,-0.0265,-0.0409,-0.0426,-0.0555,-0.0603,-0.0675,-0.0676,-0.0665,-0.0663,-0.0691,-0.0691,-0.0691,-0.0691,-0.0691,0,0.0147,0.0177,0.0173,0.019,0.023,0.02,0.0218,0.0191,0.0152,0.0152,0.0056,0.0042,-0.0141,-0.0242,-0.038,-0.0528,-0.0536,-0.0654,-0.0691,-0.0637,-0.0632,-0.0698,-0.0697,-0.0693,-0.0693,-0.0692,-0.0692,0,0.0212,0.0208,0.0246,0.0251,0.026,0.0285,0.0281,0.0289,0.025,0.0248,0.0237,0.0135,0.0009,-0.0165,-0.0363,-0.048,-0.0629,-0.0681,-0.0588,-0.0613,-0.0723,-0.0719,-0.0769,-0.0769,-0.0769,-0.077,-0.077,0,0.0247,0.0274,0.0295,0.0317,0.0321,0.0349,0.0367,0.0339,0.0348,0.0312,0.0325,0.0212,0.0149,-0.0118,-0.0342,-0.0564,-0.062,-0.066,-0.0685,-0.07,-0.0731,-0.0726,-0.0722,-0.0641,-0.064,-0.064,-0.0639,0,0.0306,0.0307,0.0327,0.0376,0.0407,0.0441,0.047,0.0496,0.0471,0.0478,0.047,0.0421,0.0182,-0.0022,-0.0315,-0.0463,-0.0621,-0.0653,-0.0703,-0.0626,-0.0584,-0.0613,-0.0612,-0.0633,-0.0633,-0.0634,-0.0634,-0.0634,0.0336,0.0359,0.0379,0.043,0.047,0.0529,0.0578,0.0624,0.0662,0.0702,0.0611,0.0566,0.0311,-0.0038,-0.0298,-0.0567,-0.0579,-0.067,-0.067,-0.0672,-0.0642,-0.0603,-0.0648,-0.0649,-0.0649,-0.065,-0.065,0,0.0369,0.0387,0.0437,0.0489,0.0563,0.0567,0.0643,0.0722,0.0817,0.0818,0.0817,0.0604,0.0351,0.0052,-0.0327,-0.0567,-0.0588,-0.0647,-0.0617,-0.0621,-0.0625,-0.0592,-0.0585,-0.0586,-0.0587,-0.0587,0,0,0.0376,0.0428,0.0458,0.0567,0.0616,0.0741,0.0801,0.0922,0.0963,0.1007,0.096,0.0838,0.0449,0.019,-0.014,-0.0362,-0.0438,-0.0404,-0.0426,-0.0354,-0.0355,-0.0602,-0.0551,0,0,0,0,0]}],[{"header":{"parameterUnit":"m.s-1","parameterCategory":2,"la1":30.2991,"la2":30.254,"lo1":-89.0895,"lo2":-89.0444,"dy":0.0017,"dx":0.0017,"nx":28,"ny":28,"refTime":"2023-10-14T03:00:00:Z","depth":"4","parameterNumber":2,"parameterNumberName":"U-component_of_CURRENTS"},"data":[0,0,0,0,0,0,0,0,0,0,0,0,0,0,0,0,0,0,0,0,0,0,0,0,0,0,0,0,0,0,0,0,0,0,0,0,0,0,0,0,0,0,0,0,0,0,0,0,0,0,0,0,0,0,0,0,0,0,0.0506,0.0506,0,0.058,0.0582,0.0583,0.0686,0.0687,0.0688,0.0688,0.0721,0.0721,0.0721,0,0,0,0,0,0,0,0,0,0,0,0,0,0.0402,0.0404,0.0506,0.0506,0.0506,0.058,0.0582,0.0584,0.0686,0.0687,0.0688,0.0689,0.0721,0.0721,0.0721,0,0,0,0,0,0,0,0,0,0,0,0,0,0.0467,0.0405,0.0506,0.0559,0.0564,0.058,0.0582,0.0584,0.0685,0.0687,0.0688,0.0689,0.0721,0.0721,0.0721,0.0694,0,0,0.0721,0.0721,0,0,0,0,0,0,0,0,0.0463,0.0472,0.0551,0.0555,0.0561,0.0617,0.0557,0.0616,0.0685,0.0649,0.0688,0.069,0.0676,0.0679,0.0704,0.0695,0.0697,0.0721,0.0721,0.0721,0.0721,0,0,0,0,0,0,0,0.0459,0.0469,0.0544,0.0551,0.0557,0.0561,0.0574,0.0569,0.066,0.0652,0.0657,0.0651,0.068,0.0704,0.0705,0.0697,0.0721,0.0721,0.0721,0.0721,0.0672,0.0671,0,0,0,0,0,0,0.0433,0.0465,0.0542,0.0546,0.0505,0.0562,0.0576,0.0605,0.0661,0.0668,0.065,0.0655,0.0703,0.0705,0.0706,0.0733,0.0721,0.0721,0.0721,0.0674,0.0672,0.0671,0,0,0,0,0,0,0.0432,0.0441,0.0539,0.0498,0.0509,0.0562,0.0594,0.0606,0.0701,0.0658,0.0667,0.074,0.0704,0.0706,0.0728,0.0733,0.0721,0.0721,0.0675,0.0673,0.0671,0.075,0,0,0,0,0,0,0.0429,0.0441,0.0496,0.0497,0.051,0.0611,0.0592,0.0606,0.0686,0.0697,0.0736,0.0737,0.0705,0.0728,0.0728,0.0733,0.0721,0.0677,0.0674,0.0672,0.0749,0.0751,0.0753,0,0,0,0,0,0.0426,0.0485,0.0499,0.051,0.0572,0.0614,0.0626,0.0669,0.069,0.0758,0.0744,0.074,0.0711,0.0729,0.0728,0.0733,0.0678,0.0675,0.0672,0.0748,0.0751,0.0752,0,0,0,0,0,0,0.0479,0.0499,0.0516,0.0585,0.0623,0.0629,0.069,0.0713,0.0764,0.0774,0.0747,0.0746,0.0757,0.0731,0.0751,0.0702,0.0684,0.0681,0.0742,0.0744,0.0745,0.0813,0.0721,0,0,0,0,0,0.0508,0.0565,0.0576,0.0643,0.0663,0.0693,0.0729,0.0752,0.0766,0.0798,0.0789,0.0762,0.0731,0.0735,0.0705,0.0705,0.0713,0.0694,0.0696,0.0699,0.0748,0.0736,0.0744,0.0661,0.0661,0.0661,0,0,0.0537,0.0565,0.0595,0.0659,0.0692,0.0722,0.0725,0.0792,0.0812,0.0783,0.0818,0.0785,0.0732,0.0713,0.0714,0.0706,0.0722,0.0695,0.0698,0.0747,0.0734,0.0743,0.0751,0.0659,0.0659,0.066,0,0,0.0595,0.0662,0.0711,0.075,0.08,0.0802,0.0838,0.0859,0.0883,0.0902,0.0852,0.0835,0.0811,0.0755,0.0726,0.0725,0.0733,0.0703,0.0778,0.0765,0.0774,0.0782,0.0806,0.0815,0.0703,0.0704,0.0704,0,0.0634,0.0701,0.0738,0.0788,0.0819,0.0844,0.0888,0.0903,0.0921,0.0929,0.0927,0.0868,0.0825,0.0786,0.0776,0.0735,0.0753,0.0782,0.0775,0.0782,0.0789,0.0811,0.0821,0.0707,0.0707,0.0706,0.0706,0,0.0694,0.0772,0.0811,0.087,0.0913,0.097,0.0964,0.1,0.1013,0.1006,0.1005,0.0939,0.0921,0.0866,0.0835,0.0835,0.0842,0.0784,0.0788,0.0804,0.0824,0.0833,0.0712,0.0711,0.071,0.0709,0,0,0.0708,0.0828,0.0849,0.0897,0.0967,0.0997,0.103,0.106,0.1088,0.1083,0.1111,0.1038,0.104,0.1008,0.0941,0.092,0.0965,0.0899,0.0897,0.0959,0.0991,0.0913,0.0915,0.0923,0.0924,0.0925,0.099,0,0.0752,0.0863,0.0903,0.0995,0.1046,0.1079,0.1104,0.113,0.1147,0.1167,0.1119,0.1124,0.1078,0.1083,0.1061,0.0984,0.0993,0.0957,0.0938,0.0939,0.0895,0.0923,0.0931,0.0996,0.0998,0.0999,0.1,0,0.0785,0.086,0.0974,0.1063,0.1087,0.1135,0.12,0.1227,0.1252,0.127,0.1292,0.1273,0.1264,0.1209,0.1169,0.1163,0.1122,0.1056,0.1055,0.0975,0.0877,0.0969,0.1016,0.1015,0.1013,0.1012,0.1011,0,0.0778,0.0899,0.1001,0.104,0.1138,0.1188,0.123,0.1273,0.1282,0.1364,0.1388,0.1395,0.1392,0.1358,0.1251,0.1245,0.1184,0.1139,0.1037,0.1032,0.1053,0.1043,0.114,0.1139,0.1139,0.1139,0.1139,0,0.0785,0.0867,0.1016,0.1076,0.1152,0.1221,0.1291,0.1336,0.1378,0.1347,0.1462,0.1387,0.1435,0.1383,0.1309,0.1202,0.1242,0.1091,0.1047,0.1079,0.1072,0.1059,0.1049,0.1142,0.1141,0.1141,0.114,0,0.072,0.0861,0.0969,0.1113,0.1165,0.1213,0.1302,0.1296,0.1412,0.138,0.1415,0.1425,0.1373,0.1387,0.1299,0.1256,0.1157,0.11,0.1176,0.1128,0.1023,0.1015,0.1067,0.1064,0.1063,0.1061,0.106,0,0.0678,0.0745,0.0963,0.0993,0.1059,0.115,0.1166,0.1298,0.1268,0.1287,0.1211,0.1251,0.1232,0.1138,0.1111,0.1103,0.1049,0.109,0.1057,0.1066,0.1017,0.1013,0.1008,0.1057,0.1056,0.1056,0.1056,0,0.0557,0.0685,0.0752,0.0853,0.0918,0.0966,0.1009,0.1021,0.1093,0.1175,0.107,0.108,0.1027,0.1018,0.1077,0.0992,0.1127,0.1071,0.1075,0.1045,0.1054,0.1007,0.1004,0.1049,0.105,0.1051,0.1051,0,0.0452,0.047,0.0614,0.0663,0.0722,0.0772,0.0845,0.0832,0.0898,0.0971,0.0847,0.0881,0.0917,0.0939,0.0873,0.094,0.0935,0.0967,0.0976,0.0983,0.0922,0.092,0.0865,0,0,0,0,0,0.0347,0.0389,0.0391,0.0523,0.0535,0.0625,0.0692,0.0754,0.0853,0.0775,0.0866,0.0796,0.0815,0.0777,0.0833,0.0799,0.0923,0.0858,0.096,0.1015,0.1022,0.0954,0,0,0,0,0,0,0.0326,0.0354,0.0378,0.0369,0.0391,0.0467,0.0538,0.0598,0.0609,0.0686,0.07,0.0767,0.0787,0.0782,0.081,0.0819,0.0884,0.0888,0.0888,0.101,0.1017,0.1023,0.0956,0,0,0,0,0]},{"header":{"parameterUnit":"m.s-1","parameterCategory":2,"la1":30.2991,"la2":30.254,"lo1":-89.0895,"lo2":-89.0444,"dy":0.0017,"dx":0.0017,"nx":28,"ny":28,"refTime":"2023-10-14T03:00:00:Z","depth":"4","parameterNumber":3,"parameterNumberName":"V-component_of_CURRENTS"},"data":[0,0,0,0,0,0,0,0,0,0,0,0,0,0,0,0,0,0,0,0,0,0,0,0,0,0,0,0,0,0,0,0,0,0,0,0,0,0,0,0,0,0,0,0,0,0,0,0,0,0,0,0,0,0,0,0,0,0,0.0566,0.0565,0,0.0587,0.0589,0.059,0.0711,0.0712,0.0714,0.0715,0.0738,0.0738,0.0737,0,0,0,0,0,0,0,0,0,0,0,0,0,0.0513,0.0516,0.0566,0.0565,0.0564,0.0587,0.0589,0.0591,0.0711,0.0713,0.0714,0.0716,0.0739,0.0738,0.0737,0,0,0,0,0,0,0,0,0,0,0,0,0,0.0552,0.0517,0.0567,0.0613,0.0617,0.0586,0.0589,0.0591,0.0711,0.0713,0.0715,0.0716,0.0739,0.0738,0.0737,0.0693,0,0,0.0735,0.0734,0,0,0,0,0,0,0,0,0.055,0.0557,0.0608,0.061,0.0613,0.0633,0.0578,0.0619,0.071,0.0694,0.0715,0.0717,0.069,0.0694,0.0718,0.0694,0.0695,0.0734,0.0734,0.0734,0.0733,0,0,0,0,0,0,0,0.0548,0.0555,0.0593,0.0606,0.0609,0.0591,0.0603,0.0587,0.0695,0.0695,0.07,0.0673,0.0695,0.0719,0.0719,0.0695,0.0734,0.0734,0.0733,0.0733,0.0664,0.0663,0,0,0,0,0,0,0.0514,0.0554,0.0591,0.0591,0.0566,0.059,0.0603,0.0639,0.0695,0.07,0.0671,0.0678,0.072,0.072,0.072,0.0724,0.0734,0.0733,0.0732,0.0665,0.0664,0.0662,0,0,0,0,0,0,0.0514,0.052,0.059,0.0555,0.056,0.0588,0.0628,0.0638,0.0742,0.0673,0.0683,0.0771,0.0721,0.0722,0.0733,0.0723,0.0732,0.0732,0.0667,0.0665,0.0663,0.0695,0,0,0,0,0,0,0.0514,0.0522,0.0586,0.0555,0.0561,0.063,0.0624,0.0637,0.0708,0.0721,0.0759,0.076,0.0723,0.0734,0.0732,0.0722,0.0731,0.0669,0.0666,0.0664,0.0695,0.0694,0.0693,0,0,0,0,0,0.0513,0.0574,0.0591,0.0596,0.0635,0.063,0.0637,0.067,0.0712,0.0774,0.0765,0.0763,0.0716,0.0734,0.0731,0.072,0.067,0.0667,0.0664,0.0696,0.0694,0.0693,0,0,0,0,0,0,0.0612,0.0589,0.0608,0.0673,0.0675,0.0645,0.0693,0.0719,0.077,0.0793,0.0763,0.076,0.0755,0.0737,0.0757,0.0687,0.0686,0.0683,0.0711,0.071,0.0709,0.0707,0.073,0,0,0,0,0,0.0649,0.0696,0.0661,0.0729,0.0725,0.0733,0.0753,0.0771,0.0771,0.0806,0.0788,0.0764,0.0726,0.0727,0.0688,0.0675,0.0637,0.0658,0.0657,0.0656,0.0649,0.0579,0.0571,0.0653,0.0653,0.0653,0,0,0.07,0.0699,0.0728,0.0751,0.0759,0.0743,0.076,0.0802,0.0794,0.0789,0.0795,0.0771,0.0722,0.0682,0.0678,0.068,0.0613,0.0652,0.0653,0.0645,0.0575,0.0567,0.056,0.0651,0.0651,0.0651,0,0,0.0763,0.083,0.0856,0.0851,0.085,0.0827,0.0855,0.0838,0.0858,0.0846,0.0813,0.079,0.0752,0.0687,0.0657,0.0633,0.0608,0.0629,0.0629,0.0561,0.0554,0.0547,0.0496,0.0484,0.0631,0.0631,0.0631,0,0.0827,0.0858,0.0869,0.0867,0.0852,0.0866,0.0861,0.0863,0.0849,0.083,0.0855,0.0757,0.0737,0.0656,0.064,0.0631,0.0599,0.0646,0.0561,0.0554,0.0547,0.0495,0.0482,0.0632,0.0632,0.0632,0.0632,0,0.0861,0.0898,0.0912,0.0901,0.0898,0.0913,0.0858,0.0866,0.0874,0.084,0.0796,0.075,0.0688,0.0672,0.0656,0.0582,0.0578,0.057,0.0572,0.0541,0.0488,0.0474,0.0634,0.0633,0.0633,0.0633,0,0,0.0931,0.0937,0.0946,0.0942,0.0919,0.0913,0.0878,0.0832,0.0814,0.0791,0.0747,0.068,0.0672,0.0634,0.0605,0.0554,0.0486,0.0554,0.055,0.0516,0.035,0.0326,0.0308,0.0474,0.0471,0.0469,0.0338,0,0.095,0.0973,0.0951,0.0949,0.0934,0.0906,0.0863,0.0828,0.0797,0.0748,0.07,0.0657,0.065,0.0642,0.0582,0.051,0.0449,0.0523,0.0374,0.0369,0.0362,0.029,0.0461,0.0327,0.0324,0.0321,0.032,0,0.0949,0.0963,0.0975,0.0952,0.0944,0.0924,0.0866,0.084,0.0758,0.074,0.0683,0.0649,0.0568,0.0583,0.043,0.0484,0.0417,0.0365,0.0358,0.0312,0.0317,0.0359,0.0294,0.0296,0.0297,0.0299,0.0301,0,0.0962,0.0966,0.0988,0.098,0.0944,0.0925,0.0909,0.0833,0.0815,0.0741,0.0729,0.0618,0.0589,0.0477,0.0377,0.0405,0.0213,0.023,0.0133,0.0132,0.0185,0.0193,0.0105,0.0105,0.0105,0.0106,0.0106,0,0.0935,0.0961,0.0997,0.1,0.0996,0.0956,0.0932,0.0898,0.0842,0.0771,0.0742,0.0636,0.0567,0.045,0.0352,0.0192,0.0182,0.0109,0.0082,0.0202,0.0213,0.0176,0.0186,0.0101,0.0102,0.0103,0.0104,0,0.0893,0.0948,0.0979,0.0992,0.0998,0.0994,0.0985,0.0959,0.0916,0.0822,0.0808,0.0673,0.0498,0.0421,0.0228,0.0168,0.0014,-0.0041,0.0093,0.0081,-0.0012,0.0,-0.0167,-0.0169,-0.0171,-0.0173,-0.0174,0,0.0854,0.0863,0.0987,0.1005,0.1003,0.1006,0.1004,0.1001,0.0943,0.0767,0.0696,0.0556,0.0439,0.0196,0.0075,-0.008,-0.0095,-0.0139,-0.0077,-0.0039,-0.0048,-0.0031,-0.0016,-0.0177,-0.0177,-0.0178,-0.0178,0,0.0741,0.0841,0.0871,0.0959,0.0992,0.102,0.0992,0.0972,0.0881,0.0857,0.0603,0.0456,0.0266,0.0108,0.004,-0.0108,-0.009,-0.0159,-0.0155,-0.0098,-0.0053,-0.0056,-0.0039,-0.0185,-0.0184,-0.0184,-0.0183,0,0.0688,0.0714,0.0826,0.0876,0.094,0.0982,0.0991,0.0892,0.0874,0.0688,0.054,0.0348,0.0229,0.0077,-0.0071,-0.0119,-0.0137,-0.0126,-0.0124,-0.0118,-0.0051,0.0017,-0.0144,0,0,0,0,0,0.0624,0.0696,0.0725,0.0847,0.0902,0.0972,0.0943,0.0926,0.0836,0.0684,0.0631,0.0422,0.0195,0.0056,0.0007,-0.0103,-0.0134,-0.0168,-0.0114,-0.0222,-0.0214,-0.0145,0,0,0,0,0,0,0.0629,0.0686,0.073,0.0796,0.0861,0.0951,0.0957,0.0893,0.0795,0.0668,0.0567,0.0439,0.0254,0.0274,0.0026,-0.0013,0.0014,-0.0281,-0.0282,-0.0227,-0.022,-0.0213,-0.0139,0,0,0,0,0]}]]